| time (UTC) | temp C | wind direction | speed KPH | gust KPH | rain 1hr cm | rain 24hr cm | rain mn cm | humidity % | barometer mb |
| 20260509192522 | 33 | 255 | 14.5 | 24.1 | 0.00 | 0.00 | 0.00 | 100 | 1015.1 |
| 20260509192248 | 34 | 201 | 19.3 | 27.4 | 0.00 | 0.00 | 0.00 | 100 | 1015.1 |
| 20260509192022 | 34 | 201 | 19.3 | 27.4 | 0.00 | 0.00 | 0.00 | 100 | 1015.1 |
| 20260509191646 | 35 | 236 | 16.1 | 27.4 | 0.00 | 0.00 | 0.00 | 100 | 1015.2 |
| 20260509191522 | 35 | 236 | 16.1 | 27.4 | 0.00 | 0.00 | 0.00 | 100 | 1015.2 |
| 20260509191250 | 35 | 225 | 8.0 | 22.5 | 0.00 | 0.00 | 0.00 | 100 | 1015.3 |
| 20260509191022 | 35 | 225 | 8.0 | 22.5 | 0.00 | 0.00 | 0.00 | 100 | 1015.3 |
| 20260509190522 | 35 | 230 | 11.3 | 27.4 | 0.00 | 0.00 | 0.00 | 100 | 1015.4 |
| 20260509190324 | 34 | 246 | 11.3 | 30.6 | 0.00 | 0.00 | 0.00 | 100 | 1015.5 |
| 20260509190022 | 33 | 265 | 6.4 | 30.6 | 0.00 | 0.00 | 0.00 | 100 | 1015.6 |
| 20260509185749 | 33 | 319 | 8.0 | 29.0 | 0.00 | 0.00 | 0.00 | 100 | 1015.6 |
| 20260509185522 | 33 | 319 | 8.0 | 29.0 | 0.00 | 0.00 | 0.00 | 100 | 1015.6 |
| 20260509185251 | 34 | 225 | 9.7 | 20.9 | 0.00 | 0.00 | 0.00 | 100 | 1015.6 |
| 20260509185022 | 34 | 225 | 9.7 | 20.9 | 0.00 | 0.00 | 0.00 | 100 | 1015.6 |
| 20260509184657 | 34 | 246 | 11.3 | 30.6 | 0.00 | 0.00 | 0.00 | 100 | 1015.5 |
| 20260509184522 | 34 | 246 | 11.3 | 30.6 | 0.00 | 0.00 | 0.00 | 100 | 1015.5 |
| 20260509184239 | 34 | 153 | 11.3 | 29.0 | 0.00 | 0.00 | 0.00 | 100 | 1015.6 |
| 20260509184236 | 34 | 234 | 22.5 | 24.1 | 0.00 | 0.00 | 0.00 | 100 | 1015.5 |
| 20260509184234 | 35 | 247 | 14.5 | 22.5 | 0.00 | 0.00 | 0.00 | 100 | 1015.5 |
| 20260509184022 | 34 | 234 | 22.5 | 24.1 | 0.00 | 0.00 | 0.00 | 100 | 1015.5 |
| 20260509183522 | 34 | 274 | 12.9 | 30.6 | 0.00 | 0.00 | 0.00 | 100 | 1015.5 |
| 20260509183148 | 34 | 217 | 6.4 | 25.7 | 0.00 | 0.00 | 0.00 | 100 | 1015.6 |
| 20260509183022 | 34 | 217 | 6.4 | 25.7 | 0.00 | 0.00 | 0.00 | 100 | 1015.6 |
| 20260509182754 | 34 | 153 | 11.3 | 29.0 | 0.00 | 0.00 | 0.00 | 100 | 1015.6 |
| 20260509182522 | 34 | 153 | 11.3 | 29.0 | 0.00 | 0.00 | 0.00 | 100 | 1015.6 |
| 20260509182150 | 35 | 247 | 14.5 | 22.5 | 0.00 | 0.00 | 0.00 | 100 | 1015.5 |
| 20260509182022 | 35 | 247 | 14.5 | 22.5 | 0.00 | 0.00 | 0.00 | 100 | 1015.5 |
| 20260509181935 | 35 | 258 | 16.1 | 30.6 | 0.00 | 0.00 | 0.00 | 100 | 1015.6 |
| 20260509181631 | 35 | 258 | 16.1 | 30.6 | 0.00 | 0.00 | 0.00 | 100 | 1015.6 |
| 20260509181522 | 35 | 258 | 16.1 | 30.6 | 0.00 | 0.00 | 0.00 | 100 | 1015.6 |
| 20260509181244 | 33 | 195 | 11.3 | 25.7 | 0.00 | 0.00 | 0.00 | 100 | 1015.6 |
| 20260509181022 | 33 | 195 | 11.3 | 25.7 | 0.00 | 0.00 | 0.00 | 100 | 1015.6 |
| 20260509180643 | 34 | 234 | 12.9 | 22.5 | 0.00 | 0.00 | 0.00 | 100 | 1015.6 |
| 20260509180628 | 35 | 237 | 19.3 | 29.0 | 0.00 | 0.00 | 0.00 | 100 | 1015.5 |
| 20260509180548 | 35 | 257 | 12.9 | 24.1 | 0.00 | 0.00 | 0.00 | 100 | 1015.6 |
| 20260509180522 | 34 | 234 | 12.9 | 22.5 | 0.00 | 0.00 | 0.00 | 100 | 1015.6 |
| 20260509180022 | 35 | 237 | 19.3 | 29.0 | 0.00 | 0.00 | 0.00 | 100 | 1015.5 |
| 20260509175522 | 35 | 257 | 12.9 | 24.1 | 0.00 | 0.00 | 0.00 | 100 | 1015.6 |
| 20260509175149 | 35 | 253 | 14.5 | 25.7 | 0.00 | 0.00 | 0.00 | 100 | 1015.7 |
| 20260509175144 | 34 | 199 | 11.3 | 24.1 | 0.00 | 0.00 | 0.00 | 100 | 1015.7 |
| 20260509175022 | 35 | 253 | 14.5 | 25.7 | 0.00 | 0.00 | 0.00 | 100 | 1015.7 |
| 20260509174639 | 34 | 199 | 11.3 | 24.1 | 0.00 | 0.00 | 0.00 | 100 | 1015.7 |
| 20260509174523 | 34 | 199 | 11.3 | 24.1 | 0.00 | 0.00 | 0.00 | 100 | 1015.7 |
| 20260509174154 | 34 | 244 | 12.9 | 22.5 | 0.00 | 0.00 | 0.00 | 100 | 1015.8 |
| 20260509174148 | 33 | 232 | 12.9 | 22.5 | 0.00 | 0.00 | 0.00 | 100 | 1015.8 |
| 20260509174023 | 33 | 232 | 12.9 | 22.5 | 0.00 | 0.00 | 0.00 | 100 | 1015.8 |
| 20260509173523 | 34 | 213 | 16.1 | 22.5 | 0.00 | 0.00 | 0.00 | 100 | 1015.8 |
| 20260509173023 | 34 | 262 | 12.9 | 20.9 | 0.00 | 0.00 | 0.00 | 100 | 1015.8 |
| 20260509172737 | 34 | 244 | 12.9 | 22.5 | 0.00 | 0.00 | 0.00 | 100 | 1015.8 |
| 20260509172705 | 34 | 244 | 12.9 | 22.5 | 0.00 | 0.00 | 0.00 | 100 | 1015.8 |
| 20260509172523 | 34 | 244 | 12.9 | 22.5 | 0.00 | 0.00 | 0.00 | 100 | 1015.8 |
| 20260509172235 | 34 | 243 | 14.5 | 27.4 | 0.00 | 0.00 | 0.00 | 100 | 1015.7 |
| 20260509172023 | 34 | 243 | 14.5 | 27.4 | 0.00 | 0.00 | 0.00 | 100 | 1015.7 |
| 20260509171931 | 33 | 205 | 4.8 | 14.5 | 0.00 | 0.00 | 0.00 | 100 | 1015.8 |
| 20260509171630 | 34 | 281 | 6.4 | 20.9 | 0.00 | 0.00 | 0.00 | 100 | 1015.8 |
| 20260509171523 | 34 | 281 | 6.4 | 20.9 | 0.00 | 0.00 | 0.00 | 100 | 1015.8 |
| 20260509171236 | 33 | 205 | 4.8 | 14.5 | 0.00 | 0.00 | 0.00 | 100 | 1015.8 |
| 20260509171157 | 33 | 205 | 4.8 | 14.5 | 0.00 | 0.00 | 0.00 | 100 | 1015.8 |
| 20260509171023 | 33 | 205 | 4.8 | 14.5 | 0.00 | 0.00 | 0.00 | 100 | 1015.8 |
| 20260509170732 | 33 | 226 | 12.9 | 17.7 | 0.00 | 0.00 | 0.00 | 100 | 1016.0 |
| 20260509170656 | 33 | 226 | 12.9 | 17.7 | 0.00 | 0.00 | 0.00 | 100 | 1016.0 |
| 20260509170652 | 34 | 217 | 14.5 | 19.3 | 0.00 | 0.00 | 0.00 | 100 | 1015.9 |
| 20260509170523 | 33 | 226 | 12.9 | 17.7 | 0.00 | 0.00 | 0.00 | 100 | 1016.0 |
| 20260509170023 | 34 | 217 | 14.5 | 19.3 | 0.00 | 0.00 | 0.00 | 100 | 1015.9 |
| 20260509165523 | 34 | 277 | 9.7 | 20.9 | 0.00 | 0.00 | 0.00 | 100 | 1016.0 |
| 20260509165234 | 33 | 255 | 16.1 | 24.1 | 0.00 | 0.00 | 0.00 | 100 | 1016.1 |
| 20260509165023 | 33 | 255 | 16.1 | 24.1 | 0.00 | 0.00 | 0.00 | 100 | 1016.1 |
| 20260509164523 | 33 | 241 | 24.1 | 27.4 | 0.00 | 0.00 | 0.00 | 100 | 1016.2 |
| 20260509164256 | 33 | 246 | 8.0 | 22.5 | 0.00 | 0.00 | 0.00 | 100 | 1016.3 |
| 20260509164023 | 33 | 246 | 8.0 | 22.5 | 0.00 | 0.00 | 0.00 | 100 | 1016.3 |
| 20260509163523 | 32 | 237 | 11.3 | 19.3 | 0.00 | 0.00 | 0.00 | 100 | 1016.4 |
| 20260509163244 | 33 | 237 | 9.7 | 20.9 | 0.00 | 0.00 | 0.00 | 100 | 1016.3 |
| 20260509163238 | 33 | 206 | 12.9 | 25.7 | 0.00 | 0.00 | 0.00 | 100 | 1016.4 |
| 20260509163023 | 33 | 206 | 12.9 | 25.7 | 0.00 | 0.00 | 0.00 | 100 | 1016.4 |
| 20260509162650 | 33 | 237 | 9.7 | 20.9 | 0.00 | 0.00 | 0.00 | 100 | 1016.3 |
| 20260509162523 | 33 | 237 | 9.7 | 20.9 | 0.00 | 0.00 | 0.00 | 100 | 1016.3 |
| 20260509162144 | 32 | 184 | 8.0 | 25.7 | 0.00 | 0.00 | 0.00 | 100 | 1016.4 |
| 20260509162108 | 32 | 216 | 6.4 | 19.3 | 0.00 | 0.00 | 0.00 | 100 | 1016.5 |
| 20260509162023 | 32 | 184 | 8.0 | 25.7 | 0.00 | 0.00 | 0.00 | 100 | 1016.4 |
| 20260509161523 | 32 | 216 | 6.4 | 19.3 | 0.00 | 0.00 | 0.00 | 100 | 1016.5 |
| 20260509161203 | 33 | 246 | 14.5 | 17.7 | 0.00 | 0.00 | 0.00 | 100 | 1016.7 |
| 20260509161023 | 33 | 194 | 3.2 | 14.5 | 0.00 | 0.00 | 0.00 | 100 | 1016.6 |
| 20260509160523 | 33 | 246 | 14.5 | 17.7 | 0.00 | 0.00 | 0.00 | 100 | 1016.7 |
| 20260509160319 | 32 | 267 | 4.8 | 17.7 | 0.00 | 0.00 | 0.00 | 100 | 1016.7 |
| 20260509160023 | 32 | 206 | 8.0 | 19.3 | 0.00 | 0.00 | 0.00 | 100 | 1016.8 |
| 20260509155724 | 32 | 267 | 4.8 | 17.7 | 0.00 | 0.00 | 0.00 | 100 | 1016.7 |
| 20260509155523 | 32 | 267 | 4.8 | 17.7 | 0.00 | 0.00 | 0.00 | 100 | 1016.7 |
| 20260509155023 | 32 | 237 | 6.4 | 14.5 | 0.00 | 0.00 | 0.00 | 100 | 1016.8 |
| 20260509154735 | 31 | 206 | 12.9 | 14.5 | 0.00 | 0.00 | 0.00 | 100 | 1016.8 |
| 20260509154523 | 31 | 206 | 12.9 | 14.5 | 0.00 | 0.00 | 0.00 | 100 | 1016.8 |
| 20260509154235 | 31 | 149 | 6.4 | 14.5 | 0.00 | 0.00 | 0.00 | 100 | 1016.8 |
| 20260509154023 | 31 | 149 | 6.4 | 14.5 | 0.00 | 0.00 | 0.00 | 100 | 1016.8 |
| 20260509153726 | 31 | 158 | 4.8 | 17.7 | 0.00 | 0.00 | 0.00 | 100 | 1016.8 |
| 20260509153523 | 31 | 158 | 4.8 | 17.7 | 0.00 | 0.00 | 0.00 | 100 | 1016.8 |
| 20260509153023 | 32 | 234 | 4.8 | 12.9 | 0.00 | 0.00 | 0.00 | 100 | 1016.9 |
| 20260509152756 | 31 | 206 | 11.3 | 14.5 | 0.00 | 0.00 | 0.00 | 100 | 1016.9 |
| 20260509152523 | 31 | 206 | 11.3 | 14.5 | 0.00 | 0.00 | 0.00 | 100 | 1016.9 |
| 20260509152023 | 31 | 151 | 3.2 | 12.9 | 0.00 | 0.00 | 0.00 | 100 | 1017.1 |
| 20260509151651 | 30 | 181 | 8.0 | 11.3 | 0.00 | 0.00 | 0.00 | 100 | 1017.1 |
| 20260509151523 | 30 | 181 | 8.0 | 11.3 | 0.00 | 0.00 | 0.00 | 100 | 1017.1 |
| 20260509151149 | 30 | 203 | 6.4 | 12.9 | 0.00 | 0.00 | 0.00 | 100 | 1017.1 |
| 20260509151023 | 30 | 203 | 6.4 | 12.9 | 0.00 | 0.00 | 0.00 | 100 | 1017.1 |
| 20260509150813 | 31 | 237 | 6.4 | 11.3 | 0.00 | 0.00 | 0.00 | 100 | 1017.1 |
| 20260509150733 | 31 | 237 | 6.4 | 11.3 | 0.00 | 0.00 | 0.00 | 100 | 1017.1 |
| 20260509150523 | 31 | 237 | 6.4 | 11.3 | 0.00 | 0.00 | 0.00 | 100 | 1017.1 |
| 20260509150334 | 30 | 181 | 6.4 | 12.9 | 0.00 | 0.00 | 0.00 | 100 | 1017.3 |
| 20260509150330 | 30 | 137 | 1.6 | 12.9 | 0.00 | 0.00 | 0.00 | 100 | 1017.2 |
| 20260509150228 | 30 | 181 | 6.4 | 12.9 | 0.00 | 0.00 | 0.00 | 100 | 1017.3 |
| 20260509150023 | 30 | 181 | 6.4 | 12.9 | 0.00 | 0.00 | 0.00 | 100 | 1017.3 |
| 20260509145723 | 30 | 137 | 1.6 | 12.9 | 0.00 | 0.00 | 0.00 | 100 | 1017.2 |
| 20260509145523 | 30 | 137 | 1.6 | 12.9 | 0.00 | 0.00 | 0.00 | 100 | 1017.2 |
| 20260509145023 | 30 | 227 | 4.8 | 9.7 | 0.00 | 0.00 | 0.00 | 100 | 1017.3 |
| 20260509144736 | 30 | 184 | 6.4 | 9.7 | 0.00 | 0.00 | 0.00 | 100 | 1017.2 |
| 20260509144654 | 30 | 184 | 6.4 | 9.7 | 0.00 | 0.00 | 0.00 | 100 | 1017.2 |
| 20260509144523 | 30 | 184 | 6.4 | 9.7 | 0.00 | 0.00 | 0.00 | 100 | 1017.2 |
| 20260509144023 | 30 | 196 | 4.8 | 11.3 | 0.00 | 0.00 | 0.00 | 100 | 1017.1 |
| 20260509143900 | 30 | 230 | 4.8 | 11.3 | 0.00 | 0.00 | 0.00 | 100 | 1017.1 |
| 20260509143523 | 30 | 177 | 6.4 | 11.3 | 0.00 | 0.00 | 0.00 | 100 | 1017.0 |
| 20260509143023 | 30 | 230 | 4.8 | 11.3 | 0.00 | 0.00 | 0.00 | 100 | 1017.1 |
| 20260509142523 | 30 | 178 | 6.4 | 9.7 | 0.00 | 0.00 | 0.00 | 100 | 1017.0 |
| 20260509142248 | 29 | 181 | 4.8 | 9.7 | 0.00 | 0.00 | 0.00 | 100 | 1016.9 |
| 20260509142023 | 29 | 181 | 4.8 | 9.7 | 0.00 | 0.00 | 0.00 | 100 | 1016.9 |
| 20260509141732 | 30 | 163 | 1.6 | 9.7 | 0.00 | 0.00 | 0.00 | 100 | 1016.9 |
| 20260509141523 | 30 | 163 | 1.6 | 9.7 | 0.00 | 0.00 | 0.00 | 100 | 1016.9 |
| 20260509141111 | 28 | 170 | 4.8 | 11.3 | 0.00 | 0.00 | 0.00 | 100 | 1016.8 |
| 20260509141023 | 29 | 146 | 9.7 | 12.9 | 0.00 | 0.00 | 0.00 | 100 | 1016.8 |
| 20260509140523 | 28 | 170 | 4.8 | 11.3 | 0.00 | 0.00 | 0.00 | 100 | 1016.8 |
| 20260509140212 | 29 | 133 | 6.4 | 8.0 | 0.00 | 0.00 | 0.00 | 100 | 1016.6 |
| 20260509140023 | 29 | 144 | 9.7 | 9.7 | 0.00 | 0.00 | 0.00 | 100 | 1016.7 |
| 20260509135740 | 29 | 133 | 6.4 | 8.0 | 0.00 | 0.00 | 0.00 | 100 | 1016.6 |
| 20260509135523 | 29 | 133 | 6.4 | 8.0 | 0.00 | 0.00 | 0.00 | 100 | 1016.6 |
| 20260509135441 | 28 | 59 | 3.2 | 9.7 | 0.00 | 0.00 | 0.00 | 100 | 1016.7 |
| 20260509135023 | 28 | 59 | 3.2 | 9.7 | 0.00 | 0.00 | 0.00 | 100 | 1016.7 |
| 20260509134716 | 28 | 118 | 8.0 | 9.7 | 0.00 | 0.00 | 0.00 | 100 | 1016.8 |
| 20260509134524 | 28 | 118 | 8.0 | 9.7 | 0.00 | 0.00 | 0.00 | 100 | 1016.8 |
| 20260509134024 | 27 | 171 | 4.8 | 9.7 | 0.00 | 0.00 | 0.00 | 100 | 1016.7 |
| 20260509133722 | 27 | 56 | 3.2 | 9.7 | 0.00 | 0.00 | 0.00 | 100 | 1016.6 |
| 20260509133524 | 27 | 149 | 4.8 | 9.7 | 0.00 | 0.00 | 0.00 | 100 | 1016.6 |
| 20260509133024 | 27 | 56 | 3.2 | 9.7 | 0.00 | 0.00 | 0.00 | 100 | 1016.6 |
| 20260509132524 | 27 | 165 | 4.8 | 8.0 | 0.00 | 0.00 | 0.00 | 100 | 1016.6 |
| 20260509132500 | 27 | 126 | 3.2 | 9.7 | 0.00 | 0.00 | 0.00 | 100 | 1016.6 |
| 20260509132024 | 27 | 126 | 3.2 | 9.7 | 0.00 | 0.00 | 0.00 | 100 | 1016.6 |
| 20260509131524 | 28 | 92 | 6.4 | 9.7 | 0.00 | 0.00 | 0.00 | 100 | 1016.6 |
| 20260509131024 | 27 | 81 | 3.2 | 6.4 | 0.00 | 0.00 | 0.00 | 100 | 1016.6 |
| 20260509130524 | 27 | 21 | 0.0 | 0.0 | 0.00 | 0.00 | 0.00 | 100 | 1016.5 |
| 20260509130024 | 26 | 21 | 0.0 | 0.0 | 0.00 | 0.00 | 0.00 | 100 | 1016.5 |
| 20260509125617 | 26 | 21 | 0.0 | 0.0 | 0.00 | 0.00 | 0.00 | 100 | 1016.5 |
| 20260509125605 | 26 | 21 | 0.0 | 0.0 | 0.00 | 0.00 | 0.00 | 100 | 1016.5 |
| 20260509125524 | 26 | 21 | 0.0 | 0.0 | 0.00 | 0.00 | 0.00 | 100 | 1016.5 |
| 20260509125024 | 26 | 21 | 0.0 | 0.0 | 0.00 | 0.00 | 0.00 | 100 | 1016.5 |
| 20260509124747 | 26 | 21 | 0.0 | 0.0 | 0.00 | 0.00 | 0.00 | 100 | 1016.5 |
| 20260509124524 | 26 | 21 | 0.0 | 0.0 | 0.00 | 0.00 | 0.00 | 100 | 1016.5 |
| 20260509124024 | 26 | 21 | 0.0 | 0.0 | 0.00 | 0.00 | 0.00 | 100 | 1016.5 |
| 20260509123524 | 26 | 21 | 0.0 | 0.0 | 0.00 | 0.00 | 0.00 | 100 | 1016.5 |
| 20260509123259 | 27 | 21 | 0.0 | 0.0 | 0.00 | 0.00 | 0.00 | 100 | 1016.4 |
| 20260509123024 | 27 | 21 | 0.0 | 0.0 | 0.00 | 0.00 | 0.00 | 100 | 1016.4 |
| 20260509122809 | 27 | 21 | 0.0 | 0.0 | 0.00 | 0.00 | 0.00 | 100 | 1016.4 |
| 20260509122524 | 27 | 21 | 0.0 | 0.0 | 0.00 | 0.00 | 0.00 | 100 | 1016.4 |
| 20260509122024 | 26 | 21 | 0.0 | 0.0 | 0.00 | 0.00 | 0.00 | 100 | 1016.4 |
| 20260509121524 | 26 | 21 | 0.0 | 0.0 | 0.00 | 0.00 | 0.00 | 100 | 1016.3 |
| 20260509121024 | 26 | 21 | 0.0 | 0.0 | 0.00 | 0.00 | 0.00 | 100 | 1016.2 |
| 20260509120524 | 26 | 21 | 0.0 | 1.6 | 0.00 | 0.00 | 0.00 | 100 | 1016.0 |
| 20260509120024 | 25 | 71 | 0.0 | 0.0 | 0.00 | 0.00 | 0.00 | 100 | 1015.9 |
| 20260509115524 | 25 | 71 | 0.0 | 0.0 | 0.00 | 0.00 | 0.00 | 100 | 1016.0 |
| 20260509115024 | 24 | 71 | 0.0 | 0.0 | 0.00 | 0.00 | 0.00 | 100 | 1015.8 |
| 20260509114648 | 21 | 71 | 0.0 | 0.0 | 0.00 | 0.00 | 0.00 | 100 | 1015.8 |
| 20260509114524 | 23 | 71 | 0.0 | 0.0 | 0.00 | 0.00 | 0.00 | 100 | 1015.8 |
| 20260509114041 | 22 | 71 | 0.0 | 0.0 | 0.00 | 0.00 | 0.00 | 100 | 1015.8 |
| 20260509114024 | 23 | 71 | 0.0 | 0.0 | 0.00 | 0.00 | 0.00 | 100 | 1015.8 |
| 20260509113524 | 22 | 71 | 0.0 | 0.0 | 0.00 | 0.00 | 0.00 | 100 | 1015.8 |
| 20260509113024 | 22 | 71 | 0.0 | 0.0 | 0.00 | 0.00 | 0.00 | 100 | 1015.8 |
| 20260509112524 | 21 | 71 | 0.0 | 0.0 | 0.00 | 0.00 | 0.00 | 100 | 1015.8 |
| 20260509112501 | 20 | 71 | 0.0 | 0.0 | 0.00 | 0.00 | 0.00 | 100 | 1015.6 |
| 20260509112024 | 20 | 71 | 0.0 | 0.0 | 0.00 | 0.00 | 0.00 | 100 | 1015.7 |
| 20260509111813 | 20 | 71 | 0.0 | 0.0 | 0.00 | 0.00 | 0.00 | 100 | 1015.7 |
| 20260509111524 | 20 | 71 | 0.0 | 0.0 | 0.00 | 0.00 | 0.00 | 100 | 1015.7 |
| 20260509111024 | 20 | 71 | 0.0 | 0.0 | 0.00 | 0.00 | 0.00 | 100 | 1015.6 |
| 20260509110524 | 20 | 71 | 0.0 | 0.0 | 0.00 | 0.00 | 0.00 | 100 | 1015.6 |
| 20260509110145 | 19 | 71 | 0.0 | 0.0 | 0.00 | 0.00 | 0.00 | 100 | 1015.6 |
| 20260509110024 | 19 | 71 | 0.0 | 0.0 | 0.00 | 0.00 | 0.00 | 100 | 1015.6 |
| 20260509105524 | 19 | 71 | 0.0 | 0.0 | 0.00 | 0.00 | 0.00 | 100 | 1015.5 |
| 20260509105024 | 19 | 71 | 0.0 | 0.0 | 0.00 | 0.00 | 0.00 | 100 | 1015.6 |
| 20260509104524 | 19 | 71 | 0.0 | 0.0 | 0.00 | 0.00 | 0.00 | 100 | 1015.5 |
| 20260509104458 | 19 | 71 | 0.0 | 0.0 | 0.00 | 0.00 | 0.00 | 100 | 1015.5 |
| 20260509104024 | 19 | 71 | 0.0 | 0.0 | 0.00 | 0.00 | 0.00 | 100 | 1015.5 |
| 20260509103524 | 19 | 71 | 0.0 | 0.0 | 0.00 | 0.00 | 0.00 | 100 | 1015.4 |
| 20260509103225 | 19 | 71 | 0.0 | 0.0 | 0.00 | 0.00 | 0.00 | 100 | 1015.4 |
| 20260509103024 | 19 | 71 | 0.0 | 0.0 | 0.00 | 0.00 | 0.00 | 100 | 1015.4 |
| 20260509102727 | 20 | 71 | 0.0 | 0.0 | 0.00 | 0.00 | 0.00 | 100 | 1015.6 |
| 20260509102524 | 20 | 71 | 0.0 | 0.0 | 0.00 | 0.00 | 0.00 | 100 | 1015.5 |
| 20260509102024 | 20 | 71 | 0.0 | 0.0 | 0.00 | 0.00 | 0.00 | 100 | 1015.6 |
| 20260509101524 | 20 | 71 | 0.0 | 0.0 | 0.00 | 0.00 | 0.00 | 100 | 1015.6 |
| 20260509101024 | 20 | 71 | 0.0 | 0.0 | 0.00 | 0.00 | 0.00 | 100 | 1015.5 |
| 20260509100836 | 20 | 71 | 0.0 | 0.0 | 0.00 | 0.00 | 0.00 | 100 | 1015.6 |
| 20260509100524 | 20 | 71 | 0.0 | 0.0 | 0.00 | 0.00 | 0.00 | 100 | 1015.6 |
| 20260509100024 | 20 | 71 | 0.0 | 0.0 | 0.00 | 0.00 | 0.00 | 100 | 1015.6 |
| 20260509100019 | 20 | 71 | 0.0 | 0.0 | 0.00 | 0.00 | 0.00 | 100 | 1015.5 |
| 20260509095812 | 19 | 71 | 0.0 | 0.0 | 0.00 | 0.00 | 0.00 | 100 | 1015.6 |
| 20260509095524 | 19 | 71 | 0.0 | 0.0 | 0.00 | 0.00 | 0.00 | 100 | 1015.6 |
| 20260509095025 | 20 | 71 | 0.0 | 0.0 | 0.00 | 0.00 | 0.00 | 100 | 1015.5 |
| 20260509094525 | 20 | 71 | 0.0 | 0.0 | 0.00 | 0.00 | 0.00 | 100 | 1015.5 |
| 20260509094502 | 20 | 71 | 0.0 | 0.0 | 0.00 | 0.00 | 0.00 | 100 | 1015.5 |
| 20260509094025 | 20 | 71 | 0.0 | 0.0 | 0.00 | 0.00 | 0.00 | 100 | 1015.5 |
| 20260509093525 | 20 | 71 | 0.0 | 0.0 | 0.00 | 0.00 | 0.00 | 100 | 1015.5 |
| 20260509093025 | 20 | 71 | 0.0 | 0.0 | 0.00 | 0.00 | 0.00 | 100 | 1015.5 |
| 20260509092947 | 20 | 71 | 0.0 | 0.0 | 0.00 | 0.00 | 0.00 | 100 | 1015.5 |
| 20260509092854 | 20 | 71 | 0.0 | 0.0 | 0.00 | 0.00 | 0.00 | 100 | 1015.5 |
| 20260509092525 | 20 | 71 | 0.0 | 0.0 | 0.00 | 0.00 | 0.00 | 100 | 1015.5 |
| 20260509092025 | 20 | 71 | 0.0 | 0.0 | 0.00 | 0.00 | 0.00 | 100 | 1015.6 |
| 20260509091731 | 20 | 71 | 0.0 | 0.0 | 0.00 | 0.00 | 0.00 | 100 | 1015.7 |
| 20260509091525 | 20 | 71 | 0.0 | 0.0 | 0.00 | 0.00 | 0.00 | 100 | 1015.7 |
| 20260509091025 | 20 | 71 | 0.0 | 0.0 | 0.00 | 0.00 | 0.00 | 100 | 1015.7 |
| 20260509090525 | 20 | 71 | 0.0 | 0.0 | 0.00 | 0.00 | 0.00 | 100 | 1015.6 |
| 20260509090025 | 20 | 71 | 0.0 | 0.0 | 0.00 | 0.00 | 0.00 | 100 | 1015.6 |
| 20260509085525 | 20 | 71 | 0.0 | 0.0 | 0.00 | 0.00 | 0.00 | 100 | 1015.5 |
| 20260509085025 | 20 | 71 | 0.0 | 0.0 | 0.00 | 0.00 | 0.00 | 100 | 1015.7 |
| 20260509084525 | 20 | 71 | 0.0 | 0.0 | 0.00 | 0.00 | 0.00 | 100 | 1015.6 |
| 20260509084025 | 20 | 71 | 0.0 | 0.0 | 0.00 | 0.00 | 0.00 | 100 | 1015.6 |
| 20260509083525 | 20 | 71 | 0.0 | 0.0 | 0.00 | 0.00 | 0.00 | 100 | 1015.7 |
| 20260509083025 | 20 | 71 | 0.0 | 0.0 | 0.00 | 0.00 | 0.00 | 100 | 1015.6 |
| 20260509082525 | 20 | 71 | 0.0 | 0.0 | 0.00 | 0.00 | 0.00 | 100 | 1015.8 |
| 20260509082025 | 20 | 71 | 0.0 | 0.0 | 0.00 | 0.00 | 0.00 | 100 | 1015.8 |
| 20260509081525 | 20 | 71 | 0.0 | 0.0 | 0.00 | 0.00 | 0.00 | 100 | 1015.9 |
| 20260509081025 | 20 | 71 | 0.0 | 0.0 | 0.00 | 0.00 | 0.00 | 100 | 1015.9 |
| 20260509080721 | 20 | 71 | 0.0 | 0.0 | 0.00 | 0.00 | 0.00 | 100 | 1015.9 |
| 20260509080525 | 20 | 71 | 0.0 | 0.0 | 0.00 | 0.00 | 0.00 | 100 | 1015.9 |
| 20260509080025 | 20 | 71 | 0.0 | 0.0 | 0.00 | 0.00 | 0.00 | 100 | 1015.9 |
| 20260509075525 | 21 | 71 | 0.0 | 3.2 | 0.00 | 0.00 | 0.00 | 100 | 1016.1 |
| 20260509075025 | 20 | 19 | 0.0 | 0.0 | 0.00 | 0.00 | 0.00 | 100 | 1016.1 |
| 20260509074525 | 20 | 19 | 0.0 | 0.0 | 0.00 | 0.00 | 0.00 | 100 | 1016.1 |
| 20260509074025 | 21 | 19 | 0.0 | 0.0 | 0.00 | 0.00 | 0.00 | 100 | 1016.1 |
| 20260509073808 | 21 | 19 | 0.0 | 0.0 | 0.00 | 0.00 | 0.00 | 100 | 1016.2 |
| 20260509073525 | 21 | 19 | 0.0 | 0.0 | 0.00 | 0.00 | 0.00 | 100 | 1016.2 |
| 20260509073025 | 21 | 19 | 0.0 | 0.0 | 0.00 | 0.00 | 0.00 | 100 | 1016.2 |
| 20260509072525 | 21 | 19 | 0.0 | 0.0 | 0.00 | 0.00 | 0.00 | 100 | 1016.1 |
| 20260509072203 | 22 | 9 | 0.0 | 1.6 | 0.00 | 0.00 | 0.00 | 100 | 1016.4 |
| 20260509072025 | 22 | 19 | 0.0 | 0.0 | 0.00 | 0.00 | 0.00 | 100 | 1016.1 |
| 20260509071525 | 22 | 19 | 0.0 | 1.6 | 0.00 | 0.00 | 0.00 | 100 | 1016.3 |
| 20260509071025 | 22 | 9 | 0.0 | 0.0 | 0.00 | 0.00 | 0.00 | 100 | 1016.3 |
| 20260509070525 | 22 | 9 | 0.0 | 1.6 | 0.00 | 0.00 | 0.00 | 100 | 1016.4 |
| 20260509070025 | 22 | 9 | 1.6 | 6.4 | 0.00 | 0.00 | 0.00 | 100 | 1016.4 |
| 20260509065525 | 22 | 355 | 0.0 | 0.0 | 0.00 | 0.00 | 0.00 | 100 | 1016.5 |
| 20260509065353 | 22 | 355 | 0.0 | 0.0 | 0.00 | 0.00 | 0.00 | 100 | 1016.6 |
| 20260509065317 | 22 | 355 | 0.0 | 0.0 | 0.00 | 0.00 | 0.00 | 100 | 1016.6 |
| 20260509065028 | 21 | 355 | 0.0 | 4.8 | 0.00 | 0.00 | 0.00 | 100 | 1016.6 |
| 20260509065025 | 22 | 355 | 0.0 | 0.0 | 0.00 | 0.00 | 0.00 | 100 | 1016.6 |
| 20260509064745 | 21 | 355 | 0.0 | 4.8 | 0.00 | 0.00 | 0.00 | 100 | 1016.6 |
| 20260509064525 | 21 | 355 | 0.0 | 4.8 | 0.00 | 0.00 | 0.00 | 100 | 1016.6 |
| 20260509064255 | 21 | 45 | 0.0 | 0.0 | 0.00 | 0.00 | 0.00 | 100 | 1016.8 |
| 20260509064025 | 21 | 45 | 0.0 | 0.0 | 0.00 | 0.00 | 0.00 | 100 | 1016.6 |
| 20260509063815 | 21 | 45 | 0.0 | 0.0 | 0.00 | 0.00 | 0.00 | 100 | 1016.7 |
| 20260509063525 | 21 | 45 | 0.0 | 0.0 | 0.00 | 0.00 | 0.00 | 100 | 1016.7 |
| 20260509063218 | 21 | 45 | 0.0 | 0.0 | 0.00 | 0.00 | 0.00 | 100 | 1016.8 |
| 20260509063025 | 21 | 45 | 0.0 | 0.0 | 0.00 | 0.00 | 0.00 | 100 | 1016.8 |
| 20260509062525 | 21 | 45 | 0.0 | 0.0 | 0.00 | 0.00 | 0.00 | 100 | 1016.8 |
| 20260509062207 | 21 | 45 | 0.0 | 0.0 | 0.00 | 0.00 | 0.00 | 100 | 1017.0 |
| 20260509062025 | 21 | 45 | 0.0 | 0.0 | 0.00 | 0.00 | 0.00 | 100 | 1016.8 |
| 20260509061525 | 21 | 45 | 0.0 | 0.0 | 0.00 | 0.00 | 0.00 | 100 | 1017.0 |
| 20260509061025 | 21 | 45 | 0.0 | 0.0 | 0.00 | 0.00 | 0.00 | 100 | 1017.0 |
| 20260509060827 | 22 | 45 | 0.0 | 0.0 | 0.00 | 0.00 | 0.00 | 100 | 1017.0 |
| 20260509060525 | 22 | 45 | 0.0 | 0.0 | 0.00 | 0.00 | 0.00 | 100 | 1017.0 |
| 20260509060025 | 22 | 45 | 0.0 | 0.0 | 0.00 | 0.00 | 0.00 | 100 | 1017.0 |
| 20260509055716 | 22 | 45 | 0.0 | 0.0 | 0.00 | 0.00 | 0.00 | 100 | 1017.2 |
| 20260509055608 | 22 | 45 | 0.0 | 0.0 | 0.00 | 0.00 | 0.00 | 100 | 1017.2 |
| 20260509055530 | 22 | 45 | 0.0 | 0.0 | 0.00 | 0.00 | 0.00 | 100 | 1017.1 |
| 20260509055525 | 22 | 45 | 0.0 | 0.0 | 0.00 | 0.00 | 0.00 | 100 | 1017.2 |
| 20260509055331 | 22 | 45 | 0.0 | 0.0 | 0.00 | 0.00 | 0.00 | 100 | 1017.4 |
| 20260509055026 | 22 | 45 | 0.0 | 0.0 | 0.00 | 0.00 | 0.00 | 100 | 1017.1 |
| 20260509054803 | 22 | 45 | 0.0 | 0.0 | 0.00 | 0.00 | 0.00 | 100 | 1017.2 |
| 20260509054526 | 22 | 45 | 0.0 | 0.0 | 0.00 | 0.00 | 0.00 | 100 | 1017.2 |
| 20260509054026 | 22 | 45 | 0.0 | 0.0 | 0.00 | 0.00 | 0.00 | 100 | 1017.3 |
| 20260509053526 | 22 | 45 | 0.0 | 0.0 | 0.00 | 0.00 | 0.00 | 100 | 1017.4 |
| 20260509053026 | 23 | 45 | 0.0 | 0.0 | 0.00 | 0.00 | 0.00 | 100 | 1017.4 |
| 20260509052526 | 23 | 45 | 0.0 | 0.0 | 0.00 | 0.00 | 0.00 | 100 | 1017.4 |
| 20260509052158 | 23 | 45 | 0.0 | 0.0 | 0.00 | 0.00 | 0.00 | 100 | 1017.4 |
| 20260509052026 | 23 | 45 | 0.0 | 0.0 | 0.00 | 0.00 | 0.00 | 100 | 1017.4 |
| 20260509051526 | 23 | 45 | 0.0 | 0.0 | 0.00 | 0.00 | 0.00 | 100 | 1017.5 |
| 20260509051026 | 23 | 45 | 0.0 | 6.4 | 0.00 | 0.00 | 0.00 | 100 | 1017.5 |
| 20260509050526 | 23 | 53 | 1.6 | 3.2 | 0.00 | 0.00 | 0.00 | 100 | 1017.6 |
| 20260509050130 | 23 | 18 | 0.0 | 0.0 | 0.00 | 0.00 | 0.00 | 100 | 1017.6 |
| 20260509050026 | 23 | 18 | 0.0 | 0.0 | 0.00 | 0.00 | 0.00 | 100 | 1017.6 |
| 20260509045526 | 23 | 18 | 0.0 | 0.0 | 0.00 | 0.00 | 0.00 | 100 | 1017.6 |
| 20260509045130 | 23 | 18 | 0.0 | 0.0 | 0.00 | 0.00 | 0.00 | 100 | 1017.6 |
| 20260509045026 | 23 | 18 | 0.0 | 0.0 | 0.00 | 0.00 | 0.00 | 100 | 1017.6 |
| 20260509044652 | 23 | 18 | 0.0 | 1.6 | 0.00 | 0.00 | 0.00 | 100 | 1017.7 |
| 20260509044526 | 23 | 18 | 0.0 | 1.6 | 0.00 | 0.00 | 0.00 | 100 | 1017.7 |
| 20260509044026 | 23 | 21 | 0.0 | 4.8 | 0.00 | 0.00 | 0.00 | 100 | 1017.8 |
| 20260509043526 | 24 | 61 | 0.0 | 0.0 | 0.00 | 0.00 | 0.00 | 100 | 1017.9 |
| 20260509043026 | 24 | 61 | 0.0 | 6.4 | 0.00 | 0.00 | 0.00 | 100 | 1018.0 |
| 20260509042526 | 25 | 47 | 0.0 | 6.4 | 0.00 | 0.00 | 0.00 | 100 | 1018.0 |
| 20260509042215 | 24 | 68 | 4.8 | 8.0 | 0.00 | 0.00 | 0.00 | 100 | 1017.9 |
| 20260509042026 | 24 | 68 | 4.8 | 8.0 | 0.00 | 0.00 | 0.00 | 100 | 1017.9 |
| 20260509041526 | 25 | 88 | 4.8 | 6.4 | 0.00 | 0.00 | 0.00 | 100 | 1017.9 |
| 20260509041351 | 25 | 2 | 3.2 | 12.9 | 0.00 | 0.00 | 0.00 | 100 | 1017.7 |
| 20260509041026 | 25 | 18 | 0.0 | 6.4 | 0.00 | 0.00 | 0.00 | 100 | 1017.8 |
| 20260509040526 | 25 | 33 | 3.2 | 8.0 | 0.00 | 0.00 | 0.00 | 100 | 1017.7 |
| 20260509040026 | 25 | 2 | 3.2 | 12.9 | 0.00 | 0.00 | 0.00 | 100 | 1017.7 |
| 20260509035724 | 25 | 16 | 3.2 | 11.3 | 0.00 | 0.00 | 0.00 | 100 | 1017.6 |
| 20260509035526 | 25 | 16 | 3.2 | 11.3 | 0.00 | 0.00 | 0.00 | 100 | 1017.6 |
| 20260509035026 | 25 | 19 | 4.8 | 14.5 | 0.00 | 0.00 | 0.00 | 100 | 1017.7 |
| 20260509034526 | 25 | 358 | 11.3 | 12.9 | 0.00 | 0.00 | 0.00 | 100 | 1017.7 |
| 20260509034026 | 25 | 351 | 6.4 | 12.9 | 0.00 | 0.00 | 0.00 | 100 | 1017.7 |
| 20260509033802 | 25 | 340 | 6.4 | 14.5 | 0.00 | 0.00 | 0.00 | 100 | 1017.6 |
| 20260509033613 | 25 | 351 | 9.7 | 14.5 | 0.00 | 0.00 | 0.00 | 100 | 1017.6 |
| 20260509033526 | 25 | 340 | 6.4 | 14.5 | 0.00 | 0.00 | 0.00 | 100 | 1017.6 |
| 20260509033026 | 25 | 351 | 9.7 | 14.5 | 0.00 | 0.00 | 0.00 | 100 | 1017.6 |
| 20260509032526 | 25 | 29 | 1.6 | 16.1 | 0.00 | 0.00 | 0.00 | 100 | 1017.6 |
| 20260509032401 | 25 | 1 | 8.0 | 16.1 | 0.00 | 0.00 | 0.00 | 100 | 1017.5 |
| 20260509032026 | 25 | 1 | 8.0 | 16.1 | 0.00 | 0.00 | 0.00 | 100 | 1017.5 |
| 20260509031741 | 25 | 334 | 8.0 | 17.7 | 0.00 | 0.00 | 0.00 | 100 | 1017.6 |
| 20260509031526 | 25 | 334 | 8.0 | 17.7 | 0.00 | 0.00 | 0.00 | 100 | 1017.6 |
| 20260509031519 | 25 | 347 | 17.7 | 17.7 | 0.00 | 0.00 | 0.00 | 100 | 1017.6 |
| 20260509031026 | 25 | 347 | 17.7 | 17.7 | 0.00 | 0.00 | 0.00 | 100 | 1017.6 |
| 20260509030526 | 25 | 338 | 8.0 | 12.9 | 0.00 | 0.00 | 0.00 | 100 | 1017.6 |
| 20260509030026 | 25 | 7 | 4.8 | 12.9 | 0.00 | 0.00 | 0.00 | 100 | 1017.5 |
| 20260509025658 | 25 | 324 | 1.6 | 12.9 | 0.00 | 0.00 | 0.00 | 100 | 1017.3 |
| 20260509025526 | 25 | 25 | 1.6 | 14.5 | 0.00 | 0.00 | 0.00 | 100 | 1017.5 |
| 20260509025026 | 25 | 329 | 8.0 | 11.3 | 0.00 | 0.00 | 0.00 | 100 | 1017.5 |
| 20260509024526 | 25 | 16 | 0.0 | 11.3 | 0.00 | 0.00 | 0.00 | 100 | 1017.5 |
| 20260509024501 | 25 | 1 | 4.8 | 12.9 | 0.00 | 0.00 | 0.00 | 100 | 1017.5 |
| 20260509024026 | 25 | 1 | 4.8 | 12.9 | 0.00 | 0.00 | 0.00 | 100 | 1017.5 |
| 20260509023526 | 25 | 18 | 6.4 | 12.9 | 0.00 | 0.00 | 0.00 | 100 | 1017.4 |
| 20260509023026 | 25 | 324 | 1.6 | 12.9 | 0.00 | 0.00 | 0.00 | 100 | 1017.3 |
| 20260509022526 | 25 | 4 | 6.4 | 14.5 | 0.00 | 0.00 | 0.00 | 100 | 1017.2 |
| 20260509022026 | 25 | 338 | 6.4 | 12.9 | 0.00 | 0.00 | 0.00 | 100 | 1017.1 |
| 20260509021526 | 25 | 316 | 6.4 | 12.9 | 0.00 | 0.00 | 0.00 | 100 | 1017.0 |
| 20260509021026 | 25 | 330 | 4.8 | 9.7 | 0.00 | 0.00 | 0.00 | 100 | 1017.0 |
| 20260509020714 | 25 | 336 | 6.4 | 16.1 | 0.00 | 0.00 | 0.00 | 100 | 1017.0 |
| 20260509020526 | 25 | 336 | 6.4 | 16.1 | 0.00 | 0.00 | 0.00 | 100 | 1017.0 |
| 20260509020026 | 25 | 317 | 3.2 | 12.9 | 0.00 | 0.00 | 0.00 | 100 | 1016.9 |
| 20260509015709 | 25 | 326 | 11.3 | 12.9 | 0.00 | 0.00 | 0.00 | 100 | 1016.9 |
| 20260509015527 | 25 | 326 | 11.3 | 12.9 | 0.00 | 0.00 | 0.00 | 100 | 1016.9 |
| 20260509015027 | 25 | 2 | 0.0 | 14.5 | 0.00 | 0.00 | 0.00 | 100 | 1016.8 |
| 20260509014527 | 25 | 344 | 1.6 | 11.3 | 0.00 | 0.00 | 0.00 | 100 | 1016.7 |
| 20260509014153 | 25 | 351 | 3.2 | 11.3 | 0.00 | 0.00 | 0.00 | 100 | 1016.7 |
| 20260509014027 | 25 | 351 | 3.2 | 11.3 | 0.00 | 0.00 | 0.00 | 100 | 1016.7 |
| 20260509013527 | 25 | 312 | 9.7 | 14.5 | 0.00 | 0.00 | 0.00 | 100 | 1016.6 |
| 20260509013525 | 26 | 291 | 3.2 | 12.9 | 0.00 | 0.00 | 0.00 | 100 | 1016.7 |
| 20260509013027 | 26 | 291 | 3.2 | 12.9 | 0.00 | 0.00 | 0.00 | 100 | 1016.7 |
| 20260509012742 | 26 | 350 | 3.2 | 12.9 | 0.00 | 0.00 | 0.00 | 100 | 1016.5 |
| 20260509012527 | 26 | 305 | 4.8 | 12.9 | 0.00 | 0.00 | 0.00 | 100 | 1016.6 |
| 20260509012027 | 26 | 344 | 3.2 | 11.3 | 0.00 | 0.00 | 0.00 | 100 | 1016.6 |
| 20260509011658 | 26 | 327 | 11.3 | 11.3 | 0.00 | 0.00 | 0.00 | 100 | 1016.6 |
| 20260509011527 | 26 | 327 | 11.3 | 11.3 | 0.00 | 0.00 | 0.00 | 100 | 1016.6 |
| 20260509011027 | 26 | 322 | 8.0 | 12.9 | 0.00 | 0.00 | 0.00 | 100 | 1016.5 |
| 20260509010634 | 26 | 350 | 3.2 | 12.9 | 0.00 | 0.00 | 0.00 | 100 | 1016.5 |
| 20260509010527 | 26 | 350 | 3.2 | 12.9 | 0.00 | 0.00 | 0.00 | 100 | 1016.5 |
| 20260509010508 | 26 | 323 | 11.3 | 14.5 | 0.00 | 0.00 | 0.00 | 100 | 1016.3 |
| 20260509010027 | 26 | 347 | 4.8 | 11.3 | 0.00 | 0.00 | 0.00 | 100 | 1016.4 |
| 20260509005527 | 26 | 323 | 11.3 | 14.5 | 0.00 | 0.00 | 0.00 | 100 | 1016.3 |
| 20260509005505 | 26 | 15 | 3.2 | 11.3 | 0.00 | 0.00 | 0.00 | 100 | 1016.1 |
| 20260509005122 | 26 | 15 | 3.2 | 11.3 | 0.00 | 0.00 | 0.00 | 100 | 1016.1 |
| 20260509005027 | 26 | 15 | 3.2 | 11.3 | 0.00 | 0.00 | 0.00 | 100 | 1016.1 |
| 20260509004724 | 27 | 309 | 1.6 | 12.9 | 0.00 | 0.00 | 0.00 | 100 | 1016.0 |
| 20260509004527 | 27 | 309 | 1.6 | 12.9 | 0.00 | 0.00 | 0.00 | 100 | 1016.0 |
| 20260509004215 | 27 | 355 | 8.0 | 16.1 | 0.00 | 0.00 | 0.00 | 100 | 1016.0 |
| 20260509004027 | 27 | 355 | 8.0 | 16.1 | 0.00 | 0.00 | 0.00 | 100 | 1016.0 |
| 20260509003607 | 28 | 322 | 3.2 | 8.0 | 0.00 | 0.00 | 0.00 | 100 | 1015.5 |
| 20260509003527 | 27 | 316 | 6.4 | 12.9 | 0.00 | 0.00 | 0.00 | 100 | 1015.9 |
| 20260509003522 | 28 | 322 | 3.2 | 8.0 | 0.00 | 0.00 | 0.00 | 100 | 1015.5 |
| 20260509003143 | 27 | 317 | 4.8 | 11.3 | 0.00 | 0.00 | 0.00 | 100 | 1015.9 |
| 20260509003027 | 27 | 317 | 4.8 | 11.3 | 0.00 | 0.00 | 0.00 | 100 | 1015.9 |
| 20260509002701 | 27 | 1 | 3.2 | 8.0 | 0.00 | 0.00 | 0.00 | 100 | 1015.8 |
| 20260509002527 | 27 | 1 | 3.2 | 8.0 | 0.00 | 0.00 | 0.00 | 100 | 1015.8 |
| 20260509002143 | 27 | 2 | 1.6 | 9.7 | 0.00 | 0.00 | 0.00 | 100 | 1015.7 |
| 20260509002027 | 27 | 2 | 1.6 | 9.7 | 0.00 | 0.00 | 0.00 | 100 | 1015.7 |
| 20260509001527 | 27 | 302 | 6.4 | 6.4 | 0.00 | 0.00 | 0.00 | 100 | 1015.7 |
| 20260509001027 | 28 | 296 | 0.0 | 4.8 | 0.00 | 0.00 | 0.00 | 100 | 1015.6 |
| 20260509000619 | 28 | 322 | 3.2 | 8.0 | 0.00 | 0.00 | 0.00 | 100 | 1015.5 |
| 20260509000527 | 28 | 322 | 3.2 | 8.0 | 0.00 | 0.00 | 0.00 | 100 | 1015.5 |
| 20260509000214 | 28 | 271 | 0.0 | 3.2 | 0.00 | 0.00 | 0.00 | 100 | 1015.4 |
| 20260509000117 | 28 | 271 | 0.0 | 3.2 | 0.00 | 0.00 | 0.00 | 100 | 1015.4 |
| 20260509000027 | 28 | 271 | 0.0 | 3.2 | 0.00 | 0.00 | 0.00 | 100 | 1015.4 |
| 20260508235527 | 28 | 330 | 0.0 | 1.6 | 0.00 | 0.00 | 0.00 | 100 | 1015.4 |
| 20260508235027 | 29 | 306 | 0.0 | 4.8 | 0.00 | 0.00 | 0.00 | 100 | 1015.4 |
| 20260508234527 | 29 | 7 | 0.0 | 4.8 | 0.00 | 0.00 | 0.00 | 100 | 1015.3 |
| 20260508234140 | 30 | 296 | 0.0 | 6.4 | 0.00 | 0.00 | 0.00 | 100 | 1015.1 |
| 20260508234027 | 29 | 315 | 1.6 | 8.0 | 0.00 | 0.00 | 0.00 | 100 | 1015.2 |
| 20260508233701 | 30 | 296 | 0.0 | 6.4 | 0.00 | 0.00 | 0.00 | 100 | 1015.1 |
| 20260508233527 | 30 | 296 | 0.0 | 6.4 | 0.00 | 0.00 | 0.00 | 100 | 1015.1 |
| 20260508233148 | 30 | 293 | 4.8 | 12.9 | 0.00 | 0.00 | 0.00 | 100 | 1015.1 |
| 20260508233027 | 30 | 293 | 4.8 | 12.9 | 0.00 | 0.00 | 0.00 | 100 | 1015.1 |
| 20260508232527 | 30 | 312 | 8.0 | 17.7 | 0.00 | 0.00 | 0.00 | 100 | 1015.0 |
| 20260508232159 | 30 | 307 | 8.0 | 22.5 | 0.00 | 0.00 | 0.00 | 100 | 1015.0 |
| 20260508232027 | 30 | 307 | 8.0 | 22.5 | 0.00 | 0.00 | 0.00 | 100 | 1015.0 |
| 20260508231709 | 30 | 40 | 3.2 | 9.7 | 0.00 | 0.00 | 0.00 | 100 | 1014.9 |
| 20260508231618 | 30 | 40 | 3.2 | 9.7 | 0.00 | 0.00 | 0.00 | 100 | 1014.9 |
| 20260508231527 | 30 | 40 | 3.2 | 9.7 | 0.00 | 0.00 | 0.00 | 100 | 1014.9 |
| 20260508231245 | 30 | 320 | 4.8 | 20.9 | 0.00 | 0.00 | 0.00 | 100 | 1014.9 |
| 20260508231027 | 30 | 320 | 4.8 | 20.9 | 0.00 | 0.00 | 0.00 | 100 | 1014.9 |
| 20260508230527 | 30 | 345 | 4.8 | 14.5 | 0.00 | 0.00 | 0.00 | 100 | 1014.8 |
| 20260508230124 | 31 | 258 | 9.7 | 19.3 | 0.00 | 0.00 | 0.00 | 100 | 1014.7 |
| 20260508230027 | 31 | 258 | 9.7 | 19.3 | 0.00 | 0.00 | 0.00 | 100 | 1014.7 |
| 20260508225629 | 31 | 312 | 9.7 | 16.1 | 0.00 | 0.00 | 0.00 | 100 | 1014.7 |
| 20260508225527 | 31 | 312 | 9.7 | 16.1 | 0.00 | 0.00 | 0.00 | 100 | 1014.7 |
| 20260508225321 | 32 | 281 | 8.0 | 20.9 | 0.00 | 0.00 | 0.00 | 100 | 1014.5 |
| 20260508225317 | 32 | 291 | 4.8 | 20.9 | 0.00 | 0.00 | 0.00 | 100 | 1014.4 |
| 20260508225154 | 31 | 322 | 14.5 | 16.1 | 0.00 | 0.00 | 0.00 | 100 | 1014.6 |
| 20260508225027 | 31 | 322 | 14.5 | 16.1 | 0.00 | 0.00 | 0.00 | 100 | 1014.6 |
| 20260508224616 | 31 | 302 | 8.0 | 17.7 | 0.00 | 0.00 | 0.00 | 100 | 1014.5 |
| 20260508224527 | 31 | 302 | 8.0 | 17.7 | 0.00 | 0.00 | 0.00 | 100 | 1014.5 |
| 20260508224126 | 32 | 323 | 11.3 | 19.3 | 0.00 | 0.00 | 0.00 | 100 | 1014.5 |
| 20260508224027 | 32 | 323 | 11.3 | 19.3 | 0.00 | 0.00 | 0.00 | 100 | 1014.5 |
| 20260508223703 | 32 | 298 | 8.0 | 17.7 | 0.00 | 0.00 | 0.00 | 100 | 1014.5 |
| 20260508223527 | 32 | 298 | 8.0 | 17.7 | 0.00 | 0.00 | 0.00 | 100 | 1014.5 |
| 20260508223138 | 32 | 281 | 8.0 | 20.9 | 0.00 | 0.00 | 0.00 | 100 | 1014.5 |
| 20260508223027 | 32 | 281 | 8.0 | 20.9 | 0.00 | 0.00 | 0.00 | 100 | 1014.5 |
| 20260508222657 | 32 | 291 | 4.8 | 20.9 | 0.00 | 0.00 | 0.00 | 100 | 1014.4 |
| 20260508222527 | 32 | 291 | 4.8 | 20.9 | 0.00 | 0.00 | 0.00 | 100 | 1014.4 |
| 20260508222228 | 32 | 310 | 6.4 | 17.7 | 0.00 | 0.00 | 0.00 | 100 | 1014.3 |
| 20260508222027 | 32 | 310 | 6.4 | 17.7 | 0.00 | 0.00 | 0.00 | 100 | 1014.3 |
| 20260508221655 | 32 | 317 | 11.3 | 12.9 | 0.00 | 0.00 | 0.00 | 100 | 1014.3 |
| 20260508221527 | 32 | 317 | 11.3 | 12.9 | 0.00 | 0.00 | 0.00 | 100 | 1014.3 |
| 20260508221122 | 32 | 324 | 0.0 | 11.3 | 0.00 | 0.00 | 0.00 | 100 | 1014.4 |
| 20260508221027 | 32 | 324 | 0.0 | 11.3 | 0.00 | 0.00 | 0.00 | 100 | 1014.4 |
| 20260508220700 | 32 | 258 | 0.0 | 8.0 | 0.00 | 0.00 | 0.00 | 100 | 1014.4 |
| 20260508220527 | 32 | 258 | 0.0 | 8.0 | 0.00 | 0.00 | 0.00 | 100 | 1014.4 |
| 20260508220118 | 33 | 344 | 6.4 | 9.7 | 0.00 | 0.00 | 0.00 | 100 | 1014.5 |
| 20260508220028 | 33 | 303 | 3.2 | 8.0 | 0.00 | 0.00 | 0.00 | 100 | 1014.5 |
| 20260508215629 | 33 | 344 | 6.4 | 9.7 | 0.00 | 0.00 | 0.00 | 100 | 1014.5 |
| 20260508215528 | 33 | 344 | 6.4 | 9.7 | 0.00 | 0.00 | 0.00 | 100 | 1014.5 |
| 20260508215125 | 33 | 324 | 0.0 | 9.7 | 0.00 | 0.00 | 0.00 | 100 | 1014.5 |
| 20260508215028 | 33 | 324 | 0.0 | 9.7 | 0.00 | 0.00 | 0.00 | 100 | 1014.5 |
| 20260508214629 | 33 | 350 | 6.4 | 11.3 | 0.00 | 0.00 | 0.00 | 100 | 1014.5 |
| 20260508214528 | 33 | 350 | 6.4 | 11.3 | 0.00 | 0.00 | 0.00 | 100 | 1014.5 |
| 20260508214028 | 33 | 355 | 8.0 | 11.3 | 0.00 | 0.00 | 0.00 | 100 | 1014.4 |
| 20260508213628 | 33 | 15 | 9.7 | 14.5 | 0.00 | 0.00 | 0.00 | 100 | 1014.4 |
| 20260508213528 | 33 | 15 | 9.7 | 14.5 | 0.00 | 0.00 | 0.00 | 100 | 1014.4 |
| 20260508213028 | 34 | 338 | 12.9 | 16.1 | 0.00 | 0.00 | 0.00 | 100 | 1014.4 |
| 20260508212630 | 34 | 47 | 3.2 | 9.7 | 0.00 | 0.00 | 0.00 | 100 | 1014.4 |
| 20260508212528 | 34 | 47 | 3.2 | 9.7 | 0.00 | 0.00 | 0.00 | 100 | 1014.4 |
| 20260508212028 | 34 | 9 | 4.8 | 14.5 | 0.00 | 0.00 | 0.00 | 100 | 1014.4 |
| 20260508211528 | 34 | 331 | 6.4 | 8.0 | 0.00 | 0.00 | 0.00 | 100 | 1014.4 |
| 20260508211317 | 34 | 341 | 6.4 | 12.9 | 0.00 | 0.00 | 0.00 | 100 | 1014.5 |
| 20260508211144 | 34 | 22 | 3.2 | 12.9 | 0.00 | 0.00 | 0.00 | 100 | 1014.4 |
| 20260508211028 | 34 | 22 | 3.2 | 12.9 | 0.00 | 0.00 | 0.00 | 100 | 1014.4 |
| 20260508210631 | 33 | 348 | 9.7 | 16.1 | 0.00 | 0.00 | 0.00 | 100 | 1014.5 |
| 20260508210528 | 33 | 348 | 9.7 | 16.1 | 0.00 | 0.00 | 0.00 | 100 | 1014.5 |
| 20260508210110 | 34 | 35 | 6.4 | 14.5 | 0.00 | 0.00 | 0.00 | 100 | 1014.5 |
| 20260508210028 | 34 | 35 | 6.4 | 14.5 | 0.00 | 0.00 | 0.00 | 100 | 1014.5 |
| 20260508205625 | 35 | 1 | 6.4 | 12.9 | 0.00 | 0.00 | 0.00 | 100 | 1014.5 |
| 20260508205528 | 35 | 1 | 6.4 | 12.9 | 0.00 | 0.00 | 0.00 | 100 | 1014.5 |
| 20260508205126 | 33 | 8 | 11.3 | 12.9 | 0.00 | 0.00 | 0.00 | 100 | 1014.6 |
| 20260508205028 | 33 | 8 | 11.3 | 12.9 | 0.00 | 0.00 | 0.00 | 100 | 1014.6 |
| 20260508204631 | 34 | 341 | 6.4 | 12.9 | 0.00 | 0.00 | 0.00 | 100 | 1014.5 |
| 20260508204528 | 34 | 341 | 6.4 | 12.9 | 0.00 | 0.00 | 0.00 | 100 | 1014.5 |
| 20260508204342 | 35 | 358 | 11.3 | 12.9 | 0.00 | 0.00 | 0.00 | 100 | 1014.6 |
| 20260508204337 | 34 | 74 | 1.6 | 8.0 | 0.00 | 0.00 | 0.00 | 100 | 1014.7 |
| 20260508204028 | 35 | 358 | 11.3 | 12.9 | 0.00 | 0.00 | 0.00 | 100 | 1014.6 |
| 20260508203528 | 34 | 74 | 1.6 | 8.0 | 0.00 | 0.00 | 0.00 | 100 | 1014.7 |
| 20260508203028 | 35 | 282 | 0.0 | 9.7 | 0.00 | 0.00 | 0.00 | 100 | 1014.7 |
| 20260508202631 | 35 | 7 | 1.6 | 9.7 | 0.00 | 0.00 | 0.00 | 100 | 1014.7 |
| 20260508202528 | 35 | 7 | 1.6 | 9.7 | 0.00 | 0.00 | 0.00 | 100 | 1014.7 |
| 20260508202126 | 35 | 262 | 0.0 | 14.5 | 0.00 | 0.00 | 0.00 | 100 | 1014.9 |
| 20260508202028 | 35 | 262 | 0.0 | 14.5 | 0.00 | 0.00 | 0.00 | 100 | 1014.9 |
| 20260508201528 | 35 | 277 | 0.0 | 12.9 | 0.00 | 0.00 | 0.00 | 100 | 1014.9 |
| 20260508201159 | 35 | 275 | 1.6 | 14.5 | 0.00 | 0.00 | 0.00 | 100 | 1015.0 |
| 20260508201028 | 35 | 275 | 1.6 | 14.5 | 0.00 | 0.00 | 0.00 | 100 | 1015.0 |
| 20260508200716 | 35 | 15 | 0.0 | 11.3 | 0.00 | 0.00 | 0.00 | 100 | 1015.0 |
| 20260508200528 | 35 | 15 | 0.0 | 11.3 | 0.00 | 0.00 | 0.00 | 100 | 1015.0 |
| 20260508200332 | 35 | 296 | 3.2 | 11.3 | 0.00 | 0.00 | 0.00 | 100 | 1015.2 |
| 20260508200028 | 35 | 296 | 3.2 | 11.3 | 0.00 | 0.00 | 0.00 | 100 | 1015.2 |
| 20260508195839 | 33 | 54 | 1.6 | 14.5 | 0.00 | 0.00 | 0.00 | 100 | 1015.1 |
| 20260508195722 | 33 | 54 | 1.6 | 14.5 | 0.00 | 0.00 | 0.00 | 100 | 1015.1 |
| 20260508195528 | 33 | 54 | 1.6 | 14.5 | 0.00 | 0.00 | 0.00 | 100 | 1015.1 |
| 20260508195253 | 35 | 19 | 6.4 | 11.3 | 0.00 | 0.00 | 0.00 | 100 | 1015.4 |
| 20260508195028 | 33 | 26 | 8.0 | 16.1 | 0.00 | 0.00 | 0.00 | 100 | 1015.2 |
| 20260508194634 | 35 | 19 | 6.4 | 11.3 | 0.00 | 0.00 | 0.00 | 100 | 1015.4 |
| 20260508194528 | 35 | 19 | 6.4 | 11.3 | 0.00 | 0.00 | 0.00 | 100 | 1015.4 |
| 20260508194144 | 33 | 14 | 1.6 | 8.0 | 0.00 | 0.00 | 0.00 | 100 | 1015.8 |
| 20260508194028 | 35 | 11 | 3.2 | 19.3 | 0.00 | 0.00 | 0.00 | 100 | 1015.5 |
| 20260508193659 | 35 | 11 | 12.9 | 16.1 | 0.00 | 0.00 | 0.00 | 100 | 1015.6 |
| 20260508193528 | 35 | 11 | 12.9 | 16.1 | 0.00 | 0.00 | 0.00 | 100 | 1015.6 |
| 20260508193150 | 35 | 333 | 9.7 | 16.1 | 0.00 | 0.00 | 0.00 | 100 | 1015.7 |
| 20260508193028 | 35 | 333 | 9.7 | 16.1 | 0.00 | 0.00 | 0.00 | 100 | 1015.7 |